Location: Castelnau
(43.6639°N, 0.8431°W)
Time: 16:26:25
(UTC+00:00)

USA 234 - Pass Details

Date: 13 January 2026
Orbit: 1102 x 1106 km, 123.0° (Epoch: 4 January)

Event Time Altitude Azimuth Distance (km) Brightness Sun altitude
Rises 06:38:08 0° 49° (NE) 3,932 6.6 -10.1°
Reaches altitude 10° 06:40:37 10° 49° (NE) 2,972 5.9 -9.7°
Maximum altitude 06:47:13 88° 319° (NW) 1,111 3.3 -8.6°
Drops below altitude 10° 06:53:46 10° 233° (SW) 2,958 5.2 -7.5°
Sets 06:56:14 0° 233° (SW) 3,912 5.9 -7.1°
